Temp
18 18 18 18 18 18 18 18 19 19 19 20 20 21 21 22 22 23 24 25 25 25 26 26 27 28 29 29 29 24 18 20 29 29 30 30 31 31 30 28 27 27 23 24 23
17 18 18 18 18 18 18 18 19 19 19 20 20 21 21 22 23 23 25 25 25 26 26 27 29 30 30 31 31 21 19 29 31 32 31 30 31 31 30 29 29 27 24 24 24
17 17 18 18 18 18 18 19 19 19 19 20 20 21 21 22 23 26 26 26 26 26 26 27 29 30 31 32 32 32 29 31 31 31 31 31 31 31 31 28 26 25 19 23 25
17 17 18 19 19 18 18 19 19 19 19 20 20 21 22 22 26 26 26 26 26 26 25 27 29 31 31 30 32 30 32 32 31 31 31 32 31 31 31 30 27 27 25 24 24
18 19 18 19 19 19 19 19 19 19 19 20 20 21 21 22 25 26 26 26 26 26 26 28 30 31 31 32 32 32 32 32 32 31 31 31 31 31 31 30 29 27 23 24 26
18 19 19 19 19 19 19 19 19 19 19 20 20 21 21 25 27 26 25 26 27 26 28 29 30 30 31 32 31 31 32 32 32 32 32 32 30 29 31 30 30 28 28 27 27
19 19 19 19 19 19 19 19 19 19 19 20 20 21 20 26 27 27 26 26 27 27 28 29 30 30 30 32 32 31 31 30 32 33 33 32 24 24 31 31 30 29 28 26 27
19 19 20 19 19 19 19 19 19 19 19 20 20 20 23 26 27 26 27 28 28 28 29 29 29 30 30 31 32 32 29 28 31 33 32 32 24 29 31 30 30 27 23 26 27
19 19 19 19 19 19 19 19 19 19 19 20 21 21 25 26 26 27 27 28 28 28 28 29 29 30 31 31 30 30 25 29 32 34 33 33 31 33 32 31 30 26 25 27 27
19 19 20 20 19 19 19 19 19 19 19 20 20 22 25 27 27 27 28 28 29 29 29 29 29 30 32 31 27 27 28 29 32 33 33 32 32 33 32 31 30 28 28 27 26
19 19 20 19 19 19 19 18 18 19 19 24 25 26 28 28 28 28 28 28 29 29 30 30 30 30 32 32 31 30 30 32 33 34 33 31 30 32 33 31 31 29 28 26 26
19 19 20 19 19 19 20 18 25 26 25 23 25 27 28 29 28 28 28 29 29 30 31 31 30 32 33 32 32 32 32 32 33 34 32 29 29 27 32 32 30 22 17 19 22
19 19 19 19 19 19 20 20 24 25 27 27 26 27 28 28 29 29 29 29 30 30 31 31 33 34 33 32 32 32 32 32 32 32 29 26 22 19 24 31 30 29 22 21 22
19 19 19 19 18 19 20 22 21 24 26 29 28 28 28 28 29 29 29 30 31 31 32 32 33 32 32 32 33 31 34 33 32 32 26 28 17 16 20 30 30 30 27 22 27
20 19 19 19 20 20 24 22 23 24 26 30 30 29 29 29 31 30 29 30 31 31 32 32 32 32 32 32 34 32 34 33 33 32 31 23 17 18 19 30 30 30 30 26 28
20 19 19 19 20 22 22 24 24 26 27 30 30 30 30 30 31 31 30 30 31 32 32 32 33 33 33 33 34 34 33 33 33 33 30 32 29 24 31 31 31 31 31 30 28
19 19 19 19 22 21 22 24 26 26 32 31 30 31 31 30 32 31 30 30 30 29 30 32 32 33 33 33 34 33 32 31 30 30 30 33 31 30 32 32 32 32 30 29 28
19 19 19 20 19 21 23 26 25 31 32 33 32 31 30 32 32 31 30 30 31 32 32 31 30 32 34 33 33 33 33 32 28 23 30 30 29 30 33 32 32 31 31 30 28
18 19 20 20 20 20 24 25 29 30 34 33 32 31 31 32 32 31 31 31 32 32 31 32 31 34 34 34 34 33 33 35 33 28 31 28 20 32 32 31 31 30 29 29 29
19 18 22 21 20 21 25 24 30 32 34 34 31 32 32 32 32 32 31 33 33 34 34 33 30 34 34 34 34 34 35 33 34 26 28 29 26 24 30 29 30 29 28 27 27
19 22 24 22 21 23 26 28 31 32 32 32 33 32 33 32 33 32 32 34 34 34 34 33 33 32 34 33 33 33 33 34 35 30 27 27 29 29 29 30 29 28 27 26 26
19 25 23 23 24 26 27 30 30 32 32 32 33 33 34 34 33 33 30 33 33 33 32 33 33 31 33 35 35 35 34 34 32 31 28 30 25 31 30 30 28 26 25 25 24
19 25 24 24 26 28 29 31 31 32 32 32 33 34 35 32 32 33 31 32 32 33 30 32 32 31 32 31 32 33 34 34 34 34 24 28 24 30 28 28 27 26 25 24 23
18 27 25 24 26 27 29 30 31 31 31 33 33 34 33 31 33 33 31 31 31 31 28 30 32 31 30 28 29 29 31 34 34 32 32 29 28 28 28 27 26 25 24 24 23
21 21 23 27 28 28 30 31 31 30 31 31 31 32 32 32 30 30 32 31 31 28 30 31 30 31 31 30 26 27 30 31 32 32 31 31 28 27 23 27 26 25 24 23 22
20 21 21 25 28 29 25 29 30 31 31 31 31 32 31 31 28 24 30 30 31 30 30 31 29 30 29 31 31 30 32 33 32 32 31 31 27 28 27 26 26 25 24 23 22
17 18 19 24 28 29 29 30 30 29 28 30 30 31 30 27 29 30 30 30 31 30 30 29 29 29 28 30 31 30 31 32 32 32 30 29 26 27 26 25 24 25 25 22 22
Height
1508 1507 1507 1506 1506 1506 1507 1507 1507 1507 1508 1508 1509 1510 1511 1511 1511 1511 1510 1512 1510 1509 1508 1505 1505 1501 1497 1496 1498 1507 1535 1530 1492 1488 1484 1481 1476 1477 1482 1487 1488 1492 1498 1503 1513
1507 1506 1505 1504 1505 1505 1505 1505 1506 1506 1507 1507 1508 1509 1510 1510 1510 1508 1509 1509 1509 1508 1507 1504 1501 1497 1495 1490 1491 1503 1528 1495 1484 1480 1479 1480 1479 1479 1482 1486 1490 1494 1493 1501 1504
1506 1504 1503 1502 1502 1503 1503 1504 1504 1505 1506 1507 1508 1509 1509 1510 1510 1504 1505 1507 1507 1507 1507 1504 1501 1496 1495 1486 1489 1487 1495 1488 1485 1483 1482 1479 1478 1480 1480 1487 1490 1494 1486 1505 1502
1504 1502 1501 1500 1500 1501 1501 1502 1503 1504 1505 1506 1506 1508 1509 1509 1507 1501 1503 1505 1506 1507 1508 1504 1499 1494 1493 1490 1486 1490 1485 1485 1484 1483 1481 1479 1479 1479 1481 1483 1486 1486 1495 1496 1496
1502 1500 1499 1498 1498 1499 1500 1501 1502 1503 1504 1505 1506 1507 1508 1509 1503 1501 1502 1503 1505 1506 1507 1502 1497 1492 1488 1486 1487 1485 1486 1483 1482 1482 1481 1480 1479 1480 1480 1483 1486 1488 1492 1491 1498
1500 1498 1497 1496 1496 1497 1498 1499 1501 1502 1503 1504 1505 1506 1507 1506 1501 1500 1501 1502 1504 1505 1505 1502 1497 1494 1492 1487 1491 1488 1486 1481 1480 1479 1478 1478 1478 1481 1479 1481 1485 1489 1494 1497 1500
1499 1496 1495 1494 1494 1495 1497 1498 1500 1501 1503 1504 1504 1505 1506 1499 1499 1501 1502 1503 1504 1505 1503 1501 1499 1498 1493 1488 1488 1488 1486 1483 1478 1477 1475 1477 1497 1494 1475 1478 1481 1488 1494 1501 1503
1498 1495 1493 1493 1493 1494 1496 1497 1499 1501 1502 1504 1504 1505 1501 1497 1499 1500 1501 1501 1503 1503 1502 1500 1501 1500 1494 1489 1487 1485 1492 1503 1479 1474 1472 1473 1499 1477 1470 1476 1478 1486 1500 1500 1500
1496 1494 1492 1491 1492 1493 1495 1496 1498 1500 1502 1503 1505 1504 1498 1493 1496 1498 1499 1500 1501 1502 1503 1502 1503 1498 1492 1488 1493 1493 1518 1493 1475 1468 1468 1470 1475 1460 1467 1470 1471 1483 1489 1493 1498
1495 1492 1490 1489 1490 1492 1494 1496 1498 1501 1502 1503 1503 1508 1491 1489 1491 1495 1497 1498 1499 1500 1501 1502 1500 1495 1486 1485 1515 1508 1508 1491 1478 1467 1466 1468 1466 1465 1465 1467 1469 1481 1486 1491 1494
1493 1490 1488 1488 1489 1491 1494 1497 1503 1503 1500 1490 1489 1484 1481 1485 1489 1491 1494 1496 1497 1497 1497 1494 1495 1493 1479 1478 1487 1487 1487 1478 1468 1465 1468 1471 1477 1469 1463 1468 1472 1479 1485 1495 1495
1491 1488 1486 1487 1487 1490 1492 1492 1490 1490 1488 1487 1486 1485 1483 1482 1486 1489 1492 1495 1493 1492 1491 1488 1491 1475 1473 1475 1478 1477 1478 1478 1466 1463 1469 1478 1481 1487 1469 1468 1472 1476 1487 1504 1500
1489 1486 1485 1485 1487 1489 1488 1488 1491 1490 1483 1475 1482 1481 1483 1485 1484 1485 1489 1490 1488 1488 1483 1483 1472 1470 1472 1476 1479 1474 1475 1474 1475 1471 1480 1496 1513 1512 1493 1476 1473 1477 1490 1495 1498
1487 1485 1484 1485 1490 1489 1487 1488 1489 1491 1484 1469 1475 1477 1479 1482 1481 1481 1485 1487 1481 1483 1478 1475 1469 1472 1476 1476 1471 1482 1462 1465 1470 1474 1504 1489 1567 1545 1512 1477 1476 1479 1488 1485 1493
1485 1483 1483 1484 1484 1488 1489 1487 1491 1492 1495 1462 1466 1468 1473 1475 1467 1476 1482 1484 1480 1477 1475 1477 1471 1472 1476 1473 1464 1471 1459 1463 1465 1472 1477 1519 1548 1514 1499 1475 1474 1476 1480 1485 1489
1482 1481 1482 1485 1485 1485 1488 1490 1492 1493 1482 1458 1460 1465 1469 1470 1467 1470 1478 1482 1480 1475 1471 1469 1466 1466 1468 1465 1461 1463 1465 1463 1461 1464 1492 1472 1493 1516 1481 1474 1471 1472 1477 1483 1488
1480 1480 1480 1482 1486 1486 1488 1491 1490 1485 1445 1453 1459 1460 1462 1465 1462 1468 1474 1480 1481 1491 1484 1471 1469 1465 1464 1466 1461 1464 1471 1486 1491 1492 1490 1459 1477 1484 1471 1469 1470 1472 1479 1484 1490
1479 1479 1480 1481 1480 1486 1488 1487 1488 1443 1439 1436 1449 1456 1461 1455 1459 1466 1473 1477 1472 1468 1467 1475 1484 1464 1461 1466 1465 1460 1460 1478 1514 1544 1491 1470 1493 1486 1468 1469 1472 1475 1479 1484 1489
1478 1478 1477 1478 1480 1483 1486 1481 1458 1450 1422 1434 1444 1457 1454 1450 1456 1465 1469 1471 1465 1463 1472 1463 1468 1450 1453 1455 1459 1456 1465 1445 1461 1482 1475 1490 1512 1471 1472 1474 1478 1482 1483 1486 1490
1478 1479 1477 1478 1478 1483 1480 1472 1449 1434 1426 1429 1448 1445 1450 1450 1453 1459 1462 1454 1454 1454 1451 1456 1478 1449 1451 1454 1452 1454 1448 1462 1449 1507 1511 1495 1501 1504 1480 1480 1481 1485 1488 1492 1494
1477 1476 1474 1477 1480 1480 1472 1459 1442 1440 1441 1436 1436 1441 1436 1445 1446 1451 1450 1444 1444 1447 1452 1451 1456 1461 1450 1458 1457 1456 1458 1453 1445 1474 1504 1512 1488 1472 1475 1480 1486 1490 1492 1495 1498
1479 1472 1472 1475 1478 1471 1463 1450 1445 1441 1442 1440 1434 1432 1431 1435 1443 1443 1455 1443 1448 1450 1457 1452 1450 1472 1456 1441 1441 1443 1448 1447 1467 1474 1482 1477 1505 1466 1478 1482 1491 1498 1501 1501 1501
1478 1468 1472 1473 1468 1457 1453 1445 1443 1442 1440 1441 1435 1428 1423 1436 1445 1438 1448 1453 1453 1456 1460 1456 1457 1472 1460 1463 1451 1450 1446 1446 1445 1445 1494 1487 1510 1477 1484 1491 1496 1500 1503 1505 1506
1478 1459 1467 1470 1465 1459 1447 1444 1444 1444 1442 1435 1435 1430 1432 1443 1433 1439 1450 1456 1456 1460 1464 1463 1459 1464 1475 1485 1479 1475 1459 1446 1450 1463 1463 1474 1482 1479 1483 1489 1497 1503 1504 1506 1507
1477 1468 1468 1459 1458 1455 1445 1439 1439 1443 1445 1443 1442 1437 1437 1440 1445 1448 1440 1452 1458 1464 1465 1464 1472 1464 1462 1469 1480 1479 1468 1461 1456 1456 1471 1466 1477 1485 1494 1489 1496 1501 1505 1507 1508
1481 1479 1472 1459 1450 1450 1449 1446 1441 1438 1439 1443 1445 1439 1439 1445 1455 1463 1451 1452 1452 1462 1463 1461 1472 1467 1471 1463 1465 1467 1454 1450 1455 1456 1464 1466 1486 1484 1492 1497 1499 1502 1504 1508 1508
1489 1485 1480 1464 1453 1450 1447 1446 1443 1443 1448 1444 1446 1441 1443 1454 1456 1457 1457 1455 1457 1460 1464 1467 1469 1474 1480 1462 1459 1470 1456 1451 1455 1453 1465 1479 1489 1491 1494 1499 1503 1503 1501 1505 1507
Wind_Speed
8 8 8 9 9 8 8 8 9 9 9 9 9 9 10 11 10 10 9 8 8 10 9 5 11 11 13 14 9 31 5 9 4 7 7 15 8 3 4 8 5 5 8 24 24
10 8 8 9 10 9 9 8 8 8 8 8 8 8 9 10 11 16 13 14 13 9 9 13 12 11 14 10 6 11 5 8 8 12 6 3 5 1 7 9 3 5 25 23 24
11 9 8 9 9 10 9 9 8 8 8 7 7 7 7 7 10 17 15 14 10 8 7 10 8 11 8 13 3 6 4 6 7 6 9 10 3 4 4 6 9 6 12 12 14
13 10 8 8 9 9 10 9 8 8 7 7 7 7 7 9 5 5 13 11 10 8 8 13 12 11 8 4 4 4 5 7 6 7 5 7 5 4 1 5 12 1 17 14 19
15 11 9 8 9 9 9 9 9 8 7 7 7 7 8 8 13 5 11 11 11 9 9 12 13 14 7 4 7 6 7 8 3 4 3 5 6 5 4 2 5 13 23 19 13
15 11 9 8 8 9 8 9 9 8 7 6 6 8 8 15 11 2 6 11 10 11 10 11 11 11 7 3 3 10 8 14 1 4 7 3 10 18 6 8 7 18 13 12 12
16 12 9 7 7 8 8 8 8 7 7 6 6 8 9 17 6 6 9 10 11 11 12 9 9 10 15 6 6 11 12 16 13 1 6 7 14 9 8 5 10 10 13 9 11
17 12 9 6 6 7 8 8 8 8 7 5 5 6 9 17 7 10 10 11 12 12 12 6 6 13 15 11 9 15 5 2 20 4 4 7 17 19 7 8 12 17 8 11 12
16 14 10 6 6 7 9 8 9 8 6 6 5 5 14 10 19 12 12 13 12 12 10 7 8 15 20 15 8 2 7 16 6 5 4 5 11 7 11 12 15 23 28 18 13
17 15 10 5 7 10 10 8 9 8 6 6 6 8 20 18 18 17 15 14 13 13 13 13 15 13 15 11 1 11 14 20 4 5 7 4 4 10 10 9 11 19 17 21 19
18 16 7 4 10 14 15 12 6 4 16 17 16 15 4 14 17 20 17 14 14 15 13 17 12 14 17 10 10 19 20 9 1 2 4 15 15 10 4 3 6 20 18 10 17
19 14 5 6 12 17 21 9 5 3 7 27 16 20 3 11 19 18 18 17 16 13 15 14 13 17 9 16 6 13 10 9 3 3 6 11 9 25 14 1 6 32 31 13 24
19 12 4 7 12 19 22 11 5 6 10 20 23 17 14 13 17 21 21 21 16 15 16 15 15 12 4 6 10 13 12 7 6 7 16 14 11 28 34 8 3 9 38 25 33
18 10 4 7 7 12 20 14 9 6 6 17 18 16 17 14 17 21 22 20 11 13 14 11 16 4 9 12 14 9 11 4 7 11 5 8 4 13 33 2 2 5 29 32 24
16 7 7 15 10 14 7 9 7 5 6 19 20 12 17 20 17 20 21 22 15 11 12 13 13 11 9 13 15 10 6 8 10 12 7 11 7 10 14 11 7 8 7 23 18
12 5 9 13 7 14 6 7 5 6 7 14 13 15 17 21 11 23 23 21 14 13 12 18 7 11 12 14 12 8 12 14 14 14 4 9 11 6 6 9 10 11 10 6 14
7 3 12 15 5 9 6 10 6 9 16 18 17 18 19 14 13 19 17 18 15 12 13 14 13 8 9 10 8 10 12 8 6 5 7 9 13 9 10 13 13 11 12 12 10
5 4 10 16 9 6 11 9 9 14 14 17 16 18 17 16 17 15 17 16 18 19 10 12 13 17 15 14 14 14 16 10 6 4 8 16 8 6 13 20 19 14 15 13 16
3 4 10 10 8 10 15 11 8 13 10 14 18 17 18 15 8 14 15 16 17 18 18 10 3 19 17 14 14 15 8 15 8 18 10 7 6 11 13 13 16 15 14 14 15
3 7 7 7 10 11 11 17 18 15 10 11 12 16 15 15 14 15 16 20 19 17 14 0 6 12 9 7 11 14 12 10 5 4 7 3 4 4 13 12 12 14 14 13 11
6 7 13 11 11 13 11 19 20 1 6 9 13 13 14 14 12 16 17 10 6 13 5 12 2 8 14 10 13 10 10 10 11 12 5 7 10 14 13 13 12 15 15 14 12
7 7 13 14 12 14 13 21 6 7 8 12 12 11 15 17 14 13 9 6 7 6 10 12 9 7 14 13 15 8 12 11 5 6 7 8 9 19 11 14 16 15 14 14 13
6 5 11 14 9 12 18 24 0 14 7 12 10 15 9 3 14 8 14 9 9 5 6 12 6 9 13 11 17 5 10 10 12 12 10 9 5 13 15 11 13 14 14 13 13
7 2 8 16 19 17 17 15 10 11 15 8 8 13 11 17 12 7 13 3 5 9 8 5 13 15 13 9 9 20 23 13 9 8 9 6 14 13 13 11 14 10 11 12 12
6 4 23 8 12 16 17 14 16 9 12 8 6 9 10 6 13 20 6 14 5 6 2 4 11 14 2 7 10 16 20 23 11 8 6 9 13 15 10 7 8 8 8 9 10
11 8 18 20 4 10 8 12 12 10 7 9 13 12 10 5 5 7 7 11 4 10 3 6 11 12 15 16 16 20 18 12 10 6 9 8 16 12 12 6 5 3 5 6 6
15 10 10 12 11 8 10 10 14 3 16 6 15 5 13 6 7 3 10 8 8 5 7 10 10 10 14 14 14 14 9 6 5 2 3 5 12 7 8 6 4 6 2 6 1
Wind_Direction
313 294 279 270 264 258 251 248 248 250 249 247 247 250 251 255 258 266 257 239 235 264 252 266 248 261 252 248 101 80 356 254 350 57 8 349 331 232 247 143 153 173 139 153 152
323 303 280 270 262 257 250 246 245 248 247 246 245 244 249 258 263 260 237 251 251 242 246 255 272 250 261 276 217 123 190 14 3 3 335 168 346 223 240 60 94 345 121 139 153
326 312 286 269 260 253 248 243 240 242 242 242 238 233 235 250 282 237 227 240 235 232 246 291 284 265 238 260 358 339 40 357 359 16 320 346 350 350 42 112 178 95 307 142 149
332 311 294 272 259 248 243 237 235 235 234 235 227 220 218 226 241 177 204 222 223 228 240 271 256 280 336 136 261 310 31 344 355 4 323 298 350 314 34 90 166 176 186 173 183
336 318 296 274 258 244 235 231 227 227 226 226 222 210 210 237 251 244 215 204 218 226 232 256 269 274 4 327 342 276 350 311 354 325 286 306 288 263 262 133 104 145 169 169 169
338 326 305 282 252 239 227 222 220 219 216 219 217 209 209 247 208 249 162 203 208 220 235 255 272 344 256 308 185 271 297 277 231 289 298 296 350 335 230 160 168 163 166 158 161
340 328 314 286 247 229 217 213 210 208 206 210 213 211 238 222 201 207 198 209 209 218 235 242 288 288 269 294 250 275 275 15 289 304 276 347 5 265 245 215 178 168 160 161 165
341 332 320 288 242 215 203 202 198 196 195 198 204 211 246 228 212 219 201 207 209 218 247 313 253 270 286 256 266 244 31 204 271 240 156 279 193 216 168 209 195 132 96 199 164
341 335 317 281 233 197 189 188 185 185 187 181 179 224 240 216 214 214 205 204 205 216 227 267 259 269 265 244 270 42 314 279 234 183 316 233 310 259 177 206 192 148 176 162 157
339 332 315 270 206 182 174 168 167 175 181 191 218 237 239 221 214 207 204 209 202 214 225 235 248 252 242 245 126 259 191 250 307 47 313 215 38 16 170 215 193 164 163 150 161
338 333 313 232 189 176 161 144 152 219 204 203 184 220 126 204 185 200 197 206 200 212 221 213 230 233 239 152 213 233 255 280 89 231 264 49 3 14 257 186 223 182 147 151 151
339 334 303 214 188 182 179 195 354 351 222 229 253 225 252 159 177 198 190 203 211 217 220 236 225 254 198 180 227 242 253 288 210 311 41 50 16 345 349 35 217 133 138 170 223
338 332 276 201 194 196 197 214 332 320 264 191 212 220 209 202 202 198 191 206 202 224 219 242 238 214 17 236 229 235 243 257 307 100 65 10 18 334 317 307 202 161 157 169 202
335 325 222 175 181 205 223 212 253 303 281 161 194 211 196 197 219 199 194 203 228 223 237 224 264 179 233 255 223 241 291 305 272 272 161 162 80 314 293 188 188 126 140 174 188
328 308 202 171 159 185 341 204 228 259 272 143 175 196 182 197 176 190 190 213 232 219 241 228 225 256 227 230 242 253 322 292 272 290 87 118 102 266 235 139 139 131 134 176 162
324 292 193 181 189 169 185 176 184 234 240 172 148 179 172 212 181 173 184 217 232 265 227 269 267 206 227 235 257 296 288 279 257 250 293 298 136 304 80 89 104 116 118 142 133
317 253 185 177 55 210 177 185 219 246 136 151 167 177 185 194 199 158 184 198 219 218 235 219 247 219 262 260 249 229 251 265 283 290 279 164 98 113 118 86 84 104 110 127 135
311 220 191 185 192 198 187 213 248 226 204 142 167 176 194 182 177 175 191 202 221 239 224 211 199 218 209 232 257 239 245 254 179 356 253 28 88 106 88 99 90 92 122 140 161
305 198 211 189 214 178 206 221 236 291 137 151 172 182 213 170 150 180 197 215 209 228 250 278 281 181 197 210 225 245 238 264 270 190 201 111 183 126 112 100 98 85 69 48 41
205 223 230 186 201 184 224 248 274 306 340 160 178 198 197 183 171 192 188 206 204 215 254 86 203 170 163 214 258 282 322 294 295 9 72 128 72 4 114 111 102 100 92 75 53
230 233 161 173 169 210 229 234 236 271 274 292 210 187 222 177 209 206 179 161 214 176 264 286 251 249 180 207 238 203 236 244 280 168 172 189 162 177 130 122 110 99 93 87 71
274 268 166 166 198 225 236 245 287 298 208 263 295 282 223 177 215 202 186 164 140 296 205 231 268 190 246 212 218 236 299 316 352 327 21 317 30 104 91 102 100 93 84 80 75
266 212 182 189 228 219 227 252 333 244 239 225 254 262 229 326 195 201 95 109 131 229 19 345 249 258 245 166 314 283 240 252 266 288 166 237 122 126 123 95 87 102 100 83 72
284 189 162 211 247 287 278 238 231 241 296 250 264 264 288 159 260 181 136 129 109 59 28 327 290 300 313 111 301 297 305 266 306 302 338 119 156 158 130 121 123 102 87 82 70
248 65 302 189 222 240 269 302 225 170 227 226 259 276 241 247 159 244 167 124 165 128 261 262 276 290 296 178 136 277 290 283 309 312 313 338 127 117 122 93 93 99 98 79 65
349 352 331 302 337 280 237 273 290 225 189 203 248 227 279 63 42 345 332 180 203 167 204 253 274 281 279 287 220 235 273 289 279 310 315 296 95 112 110 110 78 68 147 98 59
356 334 305 294 278 209 253 215 250 35 333 17 327 236 66 119 37 80 308 347 308 302 286 294 295 295 284 289 287 273 313 289 304 203 43 40 84 49 79 64 14 323 313 131 48